Weather in Spiridonova Buda

Russia / Bryansk Oblast     52°16′56″N   31°46′51″E
temp.,
°C
wind,
m/s
gust,
m/s
humid.,
%
clouds,
%
prec.,
mm/h
press.,
hPa
HPBL,
m
24 july, sat
sat2400:00+19wnw41064100 0.0 1013273
03:00+18wnw377076 0.0 1014178
06:00+16nw358438 0.0 1014108
09:00+21wnw356482 0.1 1014551
12:00+22wnw566353 0.1 1014710
15:00+25nw34493 0.3 10141648
18:00+25nw34526 0.1 10151296
21:00+18e228064 0.7 101615
25 july, sun
sun2500:00+17se228337 0.4 101716
03:00+18se2279100 0.4 101826
06:00+17se228359 0.1 101929
09:00+19se1280100 0.5 1019121
12:00+23se22623 1.6 1020433
15:00+27sw114496 1.7 10192347
18:00+25se22527 0.0 1020493
21:00+19ese34740 0.1 102140
26 july, mon
mon2600:00+17sse22855 0.2 102211
03:00+16se12885 0.3 102211
06:00+16ese22885 0.0 102227
09:00+22se23682 0.0 1022409
12:00+26s33502 0.0 10221279
15:00+28s3441100 0.0 10212418
18:00+24ssw355557 0.2 1021288
21:00+19ese367986 0.3 102295
27 july, tue
tue2700:00+19ese377758 0.0 1022157
03:00+17se35865 0.0 102282
06:00+16se36745 0.0 1023103
09:00+22sse46543 0.0 1022384
12:00+27sse554349 0.0 10221160
15:00+29s563839 0.0 10212524
18:00+28sse564398 0.0 10201703
21:00+23se410545 0.0 1019217
28 july, wed
wed2800:00+21sse4106033 0.0 1020227
03:00+18se4127154 0.0 1019211
06:00+18se4126999 0.0 1017219
09:00+21sse51258100 0.0 1016470
12:00+20se51167100 0.3 1015383
15:00+24sse81358100 0.4 1013922
18:00+24sse7136396 0.1 1012679
21:00+20sse715810 0.5 1010377